Flag for Papua New Guinea Weather past 2 weeks in Port Moresby, Papua New Guinea

Now
77 °F

Passing clouds.


Feels Like: 79 °F
Forecast: 73 / 87 °F
Wind: 9 mph from Southeast

Location: Moresby

Current Time: Jul 29, 2014 at 10:55:17 PM

Latest Report: Jul 29, 2014 at 10:00 PM


Visibility: N/A

Pressure: 29.89 "Hg

Humidity: 79%

Dew point: 70 °F

Location of Port MoresbyLocation

Historic Weather in Port Moresby — Graph

°F

Port Moresby temperature yesterday

Maximum temperature yesterday: 88 °F (at 1:00 PM)
Minimum temperature yesterday: 75 °F (at 2:00 AM)
Average temperature yesterday: 80 °F

Past Weeks' High & Low Weather Summary

 TemperatureHumidityPressure
High90 °F (Jul 15, 1:00 PM)100% (Jul 27, 6:00 AM)29.98 "Hg (Jul 27, 6:00 AM)
Low70 °F (Jul 19, 6:00 AM)32% (Jul 23, 3:00 PM)29.71 "Hg (Jul 15, 4:00 PM)
Average78 °F70%29.86 "Hg
* Reported Jul 14 9:00 PM — Jul 29 9:00 PM, Port Moresby, Weather by CustomWeather, © 2014

Note: Actual official high and low records may vary slightly from our data, if they occured in-between our weather recording intervals... More about our weather records

Advertising

Port Moresby weather history for previous 24 hours

 ConditionsComfort  
Time TempWeatherWind HumidityBarometerVisibility
9:00 PM
Jul 29
77 °FPassing clouds.12 mph79%29.89 "HgN/A
8:00 PM77 °FPassing clouds.7 mph79%29.89 "HgN/A
7:00 PM79 °FPassing clouds.9 mph74%29.86 "HgN/A
6:00 PM81 °FPartly sunny.9 mph70%29.86 "HgN/A
5:00 PM82 °FScattered clouds.16 mph66%29.83 "HgN/A
3:00 PM84 °FBroken clouds.17 mph66%29.83 "HgN/A
2:00 PM84 °FScattered clouds.16 mph66%29.86 "HgN/A
1:00 PM86 °FBroken clouds.12 mph59%29.86 "HgN/A
12:00 PM86 °FPartly sunny.12 mph55%29.89 "HgN/A
11:00 AM86 °FScattered clouds.12 mph59%29.92 "HgN/A
10:00 AM84 °FScattered clouds.6 mph58%29.92 "HgN/A
9:00 AM79 °FScattered clouds.2 mph74%N/AN/A
8:00 AM79 °FScattered clouds.5 mph74%29.92 "HgN/A
7:00 AM73 °FScattered clouds.2 mph89%29.89 "HgN/A
6:00 AM73 °FPassing clouds.No wind89%29.89 "HgN/A
4:00 AM73 °FPassing clouds.No wind89%29.86 "HgN/A
3:00 AM75 °FPassing clouds.2 mph83%29.86 "HgN/A
2:00 AM75 °FPassing clouds.3 mph83%29.86 "HgN/A
1:00 AM75 °FPassing clouds.2 mph83%29.86 "HgN/A
12:00 AM77 °FPassing clouds.7 mph79%29.89 "HgN/A
Weather by CustomWeather, © 2014

See weather overviewHow to use our weather pages